Regional Weather Roundup
Issued by NWS

Current Version | Previous Version | Text Only | Print | Product List | Glossary On
Versions: 1 2 3 4 5 6 7 8 9 10 11 12 13 14 15 16 17 18 19 20 21 22 23 24 25 26 27 28 29 30 31 32 33 34 35 36 37 38 39 40 41 42 43 44 45 46 47 48 49 50
889
ASUS44 KJAN 282210
RWRMS

MISSISSIPPI HOURLY WEATHER ROUNDUP
NATIONAL WEATHER SERVICE JACKSON MS
500 PM CDT SAT MAY 28 2016

NOTE: "FAIR: INDICATES FEW OR NO CLOUDS BELOW 12,000 FEET WITH NO
SIGNIFICANT WEATHER AND/OR OBSTRUCTIONS TO VISIBILITY.

MSZ001>002-007>008-010>013-018>021-025>028-034>036-282300-
NORTHWEST MISSISSIPPI

CITY           SKY/WX    TMP DP  RH WIND       PRES   REMARKS
BATESVILLE     FAIR      77  73  87 CALM      30.02S
CLARKSDALE     MOSUNNY   84  72  65 S8        30.00S
CLEVELAND      FAIR      82  73  72 SW9       30.00S
GREENWOOD      CLOUDY    83  67  58 S14       30.00F
GREENVILLE     CLOUDY    83  67  58 SW10      30.00S
OLIVE BRANCH   PTSUNNY   81  75  83 S9        30.01F
OXFORD         FAIR      82  66  57 S7        30.03F
TUNICA         MOCLDY    81  70  69 S8        30.01S
WINONA         FAIR      81  68  64 SW7       30.02S
$$

MSZ003>006-009-014>017-022>024-029>033-037>039-282300-
NORTHEAST MISSISSIPPI

CITY           SKY/WX    TMP DP  RH WIND       PRES   REMARKS
COLUMBUS AFB   MOSUNNY   86  66  50 S12G17    30.02S
CORINTH        FAIR      84  61  45 S9G15     30.03R
GOLDN TRIANGLE PTSUNNY   84  63  48 SE12      30.02F
STARKVILLE     MOCLDY    82  64  54 SW6       30.02R
TUPELO         LGT RAIN  80  64  58 S3        30.04R
$$

MSZ040-058-282300-
CENTRAL MISSISSIPPI

CITY           SKY/WX    TMP DP  RH WIND       PRES   REMARKS
JACKSON INTL   CLOUDY    82  69  64 S7        30.03F
JACKSON HAWKNS PTSUNNY   82  66  58 S9        30.03F
MADISON        FAIR      79  66  65 S6        30.03S
MERIDIAN KEY   CLOUDY    84  65  52 SW8       30.05S
MERIDIAN NAS   CLOUDY    85  63  47 S6        30.05S
VICKSBURG TVR  SUNNY     87  67  51 VRB7      30.00S HX  90
VICKSBURG VKS  CLEAR     86  68  54 SE7       30.00F
$$

MSZ059>079-282300-
SOUTH MISSISSIPPI

CITY           SKY/WX    TMP DP  RH WIND       PRES   REMARKS
BROOKHAVEN     FAIR     N/A N/A N/A SE6       30.04F
COLUMBIA       FAIR      82  68  61 CALM      30.07F
HATTIESBURG    CLOUDY    84  67  56 S5        30.03F
MCCOMB         SUNNY     85  63  47 SW6       30.02F
NATCHEZ        SUNNY     86  64  48 SW5       30.01S
PINE BELT      CLOUDY    81  66  61 NE3       30.05F
$$

MSZ080>082-282300-
COASTAL MISSISSIPPI

CITY           SKY/WX    TMP DP  RH WIND       PRES   REMARKS
BAY ST LOUIS   MOSUNNY   79  66  65 VRB5      30.03F
BILOXI         CLOUDY    80  67  64 SE5       30.02F
PASCAGOULA     MOSUNNY   82  64  54 SE6       30.03F
GULFPORT       CLOUDY    80  66  62 SE8       30.02F
$$




USA.gov is the U.S. government's official web portal to all federal, state and local government web resources and services.